Weather History for Olathe New Century, KS

Change the Weather History Date:

Saturday, July 13, 2013

  Actual Average Record
Temperature  
Mean Temperature 80 °F -  
Max Temperature 91 °F 87 °F 98 °F (2004)
Min Temperature 69 °F 66 °F 57 °F (1999)
Cooling Degree Days 14    
Growing Degree Days 30 (Base 50)    
Moisture  
Dew Point 60 °F    
Average Humidity 53    
Maximum Humidity 63    
Minimum Humidity 42    
Precipitation  
Precipitation 0.00 in - - ()
Sea Level Pressure  
Sea Level Pressure 29.99 in    
Wind  
Wind Speed 9 mph (SE)    
Max Wind Speed 13 mph    
Max Gust Speed 20 mph    
Visibility 10 miles    
Events      
Averages and records for this station are not official NWS values.
T = Trace of Precipitation, MM = Missing Value Source: NWS Daily Summary

Daily Weather History Graph

Daily Weather History Graph

Search for Another Location

Airport:

Trip Planner

Search our weather history database for the weather conditions in past years. The results will help you decide how hot, cold, wet, or windy it might be!

Date:

Astronomy

Jul. 13, 2013 Rise Set
Actual Time 6:05 AM CDT 8:44 PM CDT
Civil Twilight 5:34 AM CDT 9:16 PM CDT
Nautical Twilight 4:55 AM CDT 9:54 PM CDT
Astronomical Twilight 4:11 AM CDT 10:38 PM CDT
Moon 11:18 AM CDT (7/13) 11:29 PM CDT (7/13)
Length of Visible Light 15h 41m
Length of Day
14h 39m
Waxing Crescent, 26% of the Moon is Illuminated
Jul 13
Waxing Crescent
Jul 15
First Quarter
Jul 22
Full
Jul 29
Last Quarter
Aug 6
New

Hourly Weather History & Observations

Time (CDT) Temp. Heat Index Dew Point Humidity Pressure Visibility Wind Dir Wind Speed Gust Speed Precip Events Conditions
12:53 AM 75.0 °F - 57.9 °F 55% 29.99 in 10.0 mi SE 11.5 mph - N/A   Clear
1:53 AM 73.9 °F - 57.9 °F 57% 29.99 in 10.0 mi SE 9.2 mph - N/A   Clear
2:53 AM 73.0 °F - 57.0 °F 57% 30.00 in 10.0 mi SE 10.4 mph - N/A   Clear
3:53 AM 71.1 °F - 57.0 °F 61% 30.00 in 10.0 mi SE 9.2 mph - N/A   Clear
4:53 AM 71.1 °F - 55.9 °F 59% 29.98 in 10.0 mi SE 9.2 mph - N/A   Clear
5:53 AM 69.1 °F - 55.9 °F 63% 29.99 in 10.0 mi SE 5.8 mph - N/A   Clear
6:53 AM 69.1 °F - 55.9 °F 63% 30.01 in 10.0 mi SE 9.2 mph - N/A   Clear
7:53 AM 72.0 °F - 55.9 °F 57% 30.01 in 10.0 mi SSE 11.5 mph - N/A   Clear
8:53 AM 75.9 °F - 57.0 °F 52% 30.02 in 10.0 mi South 9.2 mph - N/A   Clear
9:53 AM 80.1 °F 80.9 °F 60.1 °F 50% 30.02 in 10.0 mi SSE 8.1 mph - N/A   Clear
10:53 AM 84.0 °F 84.0 °F 60.1 °F 44% 30.02 in 10.0 mi SSE 9.2 mph - N/A   Clear
11:53 AM 84.9 °F 85.0 °F 61.0 °F 44% 30.01 in 10.0 mi South 9.2 mph - N/A   Clear
12:53 PM 86.0 °F 86.8 °F 63.0 °F 46% 30.00 in 10.0 mi SSE 5.8 mph - N/A   Clear
1:53 PM 90.0 °F 91.3 °F 64.0 °F 42% 29.99 in 10.0 mi SSE 6.9 mph - N/A   Clear
2:53 PM 90.0 °F 91.7 °F 64.9 °F 43% 29.98 in 10.0 mi South 4.6 mph - N/A   Clear
3:53 PM 90.0 °F 91.7 °F 64.9 °F 43% 29.97 in 9.0 mi ESE 5.8 mph - N/A   Clear
4:53 PM 87.1 °F 88.9 °F 64.9 °F 48% 29.96 in 10.0 mi ESE 12.7 mph - N/A   Partly Cloudy
5:53 PM 84.9 °F 86.6 °F 64.9 °F 51% 29.95 in 10.0 mi ESE 9.2 mph - N/A   Clear
6:53 PM 82.9 °F 84.6 °F 64.9 °F 54% 29.95 in 10.0 mi ESE 12.7 mph - N/A   Clear
7:53 PM 82.0 °F 83.1 °F 63.0 °F 52% 29.94 in 10.0 mi ESE 9.2 mph 19.6 mph N/A   Clear
8:53 PM 80.1 °F 81.2 °F 62.1 °F 54% 29.96 in 10.0 mi ESE 10.4 mph - N/A   Clear
9:53 PM 78.1 °F - 62.1 °F 58% 29.98 in 10.0 mi ESE 9.2 mph - N/A   Clear
10:53 PM 77.0 °F - 60.1 °F 56% 30.00 in 10.0 mi ESE 9.2 mph - N/A   Clear
11:53 PM 75.0 °F - 60.1 °F 60% 30.01 in 10.0 mi ESE 10.4 mph - N/A   Clear